STARLINK-1629, 46150

Orbit data source: Space-Track

STARLINK-1629, 46150 is a payload satellite owned by SpaceX/Seattle (US) in LEO that was launched on Tue, 18 Aug 2020 UTC via an FALCON 9 launch vehicle from the Air Force Eastern Test Range (AFETR). Payloads include a variety of satellites, spacecraft, and rockets equipped with specific instruments for various scientific and technological missions. These include communications satellites like Starlink; space stations such as the ISS; scientific satellites like the Hubble; Earth observation satellites from companies like Planet Labs, Umbra, and HawkEye 360; GPS; miniature CubeSats for education and research; and military/defense satellites.

Loading next visibility...
STARLINK-1629 details
Identifier
46150, 2020-057AK
Orbit
LEO
Last TLE update22 hours ago
Origin
Flag of USSpaceX/Seattle (US)
ManufacturerSpaceX/Seattle
MissionOperational Commercial Communications
Bus & MotorSTARLINK, Unknown motor
Mass260 kg wet, ~248 kg dry
Launch date (UTC)
2020-08-18 (4 years ago)
Launch vehicle
FALCON 9
Launch site
Air Force Eastern Test Range (AFETR)
Object type
Payload
Rocket body
Debris
Shape & HBRBox + 1 Pan, 8.86 m
Radar Cross Section13.562 m², Large (>1 m²)

Expand to show TLE details & history

TLE from 22 hours ago
0 STARLINK-1629
1 46150U 20057AK  24360.63493599 -.00000156  00000-0  83923-5 0  9996
2 46150  53.0548 127.6061 0001274  94.2113 265.9022 15.06394843239890
Epoch: 2024-12-25T15:14Z
Definitive object data (Epoch: 2024-12-25T15:14:18.469Z)
Latitude0.00001°
Longitude164.40329°
Altitude548.17 km
Speed7.589 km/s
True Right ascension08h 30m 25s
True Declination0° 00' 00"
Sunlit
Object was in full shadow at TLE epoch
Visualization TLE readout
Latitude-49.48189°
Longitude99.22654°
Altitude565.135 km
Speed7.578 km/s
Apparent Right ascension02h 17m 24s
Apparent Declination-47° 59' 25"
Sunlit
Object is in daylight
Visualization observer readout
Local Sidereal Time12:34:28
Azimuth237.792° WSW
Elevation-69.914°
Doppler factor1
Orbital elements
Apogee altitude548.38 km
Perigee altitude546.616 km
Semi-major axis6,925.635 km
Eccentricity0.0001274
Inclination53.0548°
RAAN127.6061°
Arg. of periapsis94.2113°
True anomaly265.88764°
Mean anomaly265.9022°
Eccentric anomaly265.89492°
Mean motion3.76577 °/min
BSTAR0.0000083923
Orbital period95.6 mins
Loading maneuver chart data...
Loading historical data...
Loading historical data...
Loading historical data...
Loading historical data...
Loading historical data...
Loading historical data...
Loading historical data...

STARLINK-1629 Visibility forecast

Observer location: undefined°, undefined

Span
Click to sort rows by Start time (UTC) header in descending order
Start Az.
Max El. time (UTC)
Max El. Az.
Max El.
End time (UTC)
End Az.
4 mins2024-12-26 13:50:50.153Z318.692° NNW2024-12-26 13:52:50.153Z351.073° N14.748°2024-12-26 13:54:50.153Z21.564° NNE
5 mins2024-12-26 17:11:50.153Z337.334° NNW2024-12-26 17:13:50.153Z22.611° NE28.898°2024-12-26 17:16:50.153Z88.705° E
6 mins2024-12-26 18:50:50.153Z288.881° WNW2024-12-26 18:53:50.153Z218.118° SW31.71°2024-12-26 18:56:50.153Z161.728° S
6 mins2024-12-27 10:23:50.153Z193.426° SSW2024-12-27 10:26:50.153Z118.678° SE31.355°2024-12-27 10:29:50.153Z66.713° ENE
5 mins2024-12-27 12:03:50.153Z278.127° WNW2024-12-27 12:05:50.153Z324.447° NNW28.982°2024-12-27 12:08:50.153Z29.364° NE
|